Weather History for KBWD - November, 2012

Change the Weather History Date:

Friday, November 16, 2012

  Actual Average (KABI) Record (KABI)
Temperature  
Mean Temperature 52 °F 54 °F  
Max Temperature 66 °F 66 °F 83 °F (1963)
Min Temperature 37 °F 43 °F 19 °F (1932)
Degree Days  
Heating Degree Days 14 11  
Month to date heating degree days 134  
Since 1 July heating degree days 238  
Cooling Degree Days 0 0  
Month to date cooling degree days 15  
Year to date cooling degree days 2404  
Growing Degree Days 2 (Base 50)    
Moisture  
Dew Point 34 °F    
Average Humidity 54    
Maximum Humidity 87    
Minimum Humidity 32    
Precipitation  
Precipitation 0.00 in 0.05 in 1.88 in (1931)
Month to date precipitation 0.87  
Year to date precipitation 23.05  
Sea Level Pressure  
Sea Level Pressure 30.34 in    
Wind  
Wind Speed 2 mph (East)    
Max Wind Speed 10 mph    
Max Gust Speed -    
Visibility 10 miles    
Events      
T = Trace of Precipitation, MM = Missing Value Source: NWS Daily Summary

Daily Weather History Graph

Daily Weather History Graph

Search for Another Location

Airport or City:

Trip Planner

Search our weather history database for the weather conditions in past years. The results will help you decide how hot, cold, wet, or windy it might be!

Date:

Astronomy

Nov. 16, 2012 Rise Set
Actual Time 7:05 AM CST 5:35 PM CST
Civil Twilight 6:39 AM CST 6:01 PM CST
Nautical Twilight 6:10 AM CST 6:31 PM CST
Astronomical Twilight 5:41 AM CST 7:00 PM CST
Moon 9:58 AM CST (11/16) 8:39 PM CST (11/16)
Length of Visible Light 11h 22m
Length of Day
10h 30m
Waxing Crescent, 12% of the Moon is Illuminated
Nov 16
Waxing Crescent
Nov 20
First Quarter
Nov 28
Full
Dec 6
Last Quarter
Dec 13
New

Hourly Weather History & Observations

Time (CST) Temp. Dew Point Humidity Pressure Visibility Wind Dir Wind Speed Gust Speed Precip Events Conditions
12:15 AM 48.2 °F 37.4 °F 66% 30.31 in 10.0 mi Calm Calm - N/A   Overcast
12:35 AM 48.2 °F 39.2 °F 71% 30.31 in 10.0 mi Calm Calm - N/A   Overcast
12:55 AM 50.0 °F 39.2 °F 66% 30.31 in 10.0 mi NE 3.5 mph - N/A   Overcast
1:15 AM 50.0 °F 37.4 °F 62% 30.31 in 10.0 mi NE 3.5 mph - N/A   Overcast
1:35 AM 48.2 °F 37.4 °F 66% 30.31 in 10.0 mi Calm Calm - N/A   Overcast
1:55 AM 46.4 °F 37.4 °F 71% 30.31 in 10.0 mi Calm Calm - N/A   Mostly Cloudy
2:15 AM 44.6 °F 35.6 °F 71% 30.31 in 10.0 mi North - - N/A   Overcast
2:35 AM 44.6 °F 37.4 °F 76% 30.32 in 10.0 mi North - - N/A   Overcast
2:55 AM 42.8 °F 35.6 °F 76% 30.32 in 10.0 mi North - - N/A   Overcast
3:15 AM 39.2 °F 35.6 °F 87% 30.32 in 10.0 mi Calm Calm - N/A   Mostly Cloudy
3:35 AM 41.0 °F 35.6 °F 81% 30.31 in 10.0 mi Calm Calm - N/A   Mostly Cloudy
3:55 AM 42.8 °F 35.6 °F 76% 30.32 in 10.0 mi Calm Calm - N/A   Mostly Cloudy
4:15 AM 39.2 °F 35.6 °F 87% 30.32 in 10.0 mi Calm Calm - N/A   Overcast
4:35 AM 37.4 °F 32.0 °F 81% 30.33 in 10.0 mi North - - N/A   Overcast
4:55 AM 39.2 °F 33.8 °F 81% 30.33 in 10.0 mi Calm Calm - N/A   Overcast
5:15 AM 41.0 °F 33.8 °F 76% 30.33 in 10.0 mi Calm Calm - N/A   Overcast
5:55 AM 41.0 °F 33.8 °F 76% 30.34 in 10.0 mi Calm Calm - N/A   Overcast
6:15 AM 39.2 °F 35.6 °F 87% 30.34 in 10.0 mi Calm Calm - N/A   Overcast
6:35 AM 39.2 °F 32.0 °F 75% 30.34 in 10.0 mi Calm Calm - N/A   Overcast
6:55 AM 39.2 °F 32.0 °F 75% 30.35 in 10.0 mi Calm Calm - N/A   Scattered Clouds
7:15 AM 37.4 °F 32.0 °F 81% 30.36 in 10.0 mi Calm Calm - N/A   Scattered Clouds
7:35 AM 39.2 °F 33.8 °F 81% 30.37 in 9.0 mi Calm Calm - N/A   Mostly Cloudy
7:55 AM 41.0 °F 35.6 °F 81% 30.38 in 8.0 mi Calm Calm - N/A   Overcast
8:15 AM 44.6 °F 35.6 °F 71% 30.38 in 10.0 mi Calm Calm - N/A   Overcast
8:35 AM 46.4 °F 35.6 °F 66% 30.39 in 10.0 mi Calm Calm - N/A   Mostly Cloudy
8:55 AM 48.2 °F 35.6 °F 62% 30.39 in 10.0 mi Calm Calm - N/A   Overcast
9:15 AM 50.0 °F 35.6 °F 58% 30.39 in 10.0 mi Calm Calm - N/A   Overcast
9:35 AM 53.6 °F 35.6 °F 51% 30.39 in 10.0 mi South 4.6 mph - N/A   Overcast
9:55 AM 55.4 °F 33.8 °F 44% 30.40 in 10.0 mi ESE 3.5 mph - N/A   Overcast
10:15 AM 57.2 °F 33.8 °F 41% 30.39 in 10.0 mi ESE 3.5 mph - N/A   Mostly Cloudy
10:35 AM 59.0 °F 32.0 °F 36% 30.39 in 10.0 mi ESE 4.6 mph - N/A   Partly Cloudy
10:55 AM 60.8 °F 33.8 °F 36% 30.38 in 10.0 mi SE 3.5 mph - N/A   Clear
11:15 AM 62.6 °F 35.6 °F 37% 30.38 in 10.0 mi Calm Calm - N/A   Clear
11:35 AM 64.4 °F 37.4 °F 37% 30.37 in 10.0 mi NE 3.5 mph - N/A   Clear
11:55 AM 64.4 °F 37.4 °F 37% 30.36 in 10.0 mi ENE 5.8 mph - N/A   Clear
12:15 PM 64.4 °F 37.4 °F 37% 30.35 in 10.0 mi Calm Calm - N/A   Clear
12:35 PM 64.4 °F 37.4 °F 37% 30.34 in 10.0 mi SE 6.9 mph - N/A   Clear
12:55 PM 66.2 °F 37.4 °F 35% 30.33 in 10.0 mi ESE 10.4 mph - N/A   Clear
1:15 PM 66.2 °F 37.4 °F 35% 30.32 in 10.0 mi East 5.8 mph - N/A   Clear
1:35 PM 66.2 °F 37.4 °F 35% 30.31 in 10.0 mi Calm Calm - N/A   Clear
1:55 PM 66.2 °F 37.4 °F 35% 30.31 in 10.0 mi ESE 8.1 mph - N/A   Clear
2:15 PM 66.2 °F 37.4 °F 35% 30.30 in 10.0 mi ESE 5.8 mph - N/A   Clear
2:35 PM 66.2 °F 37.4 °F 35% 30.30 in 10.0 mi ESE 9.2 mph - N/A   Clear
2:55 PM 66.2 °F 35.6 °F 32% 30.30 in 8.0 mi NE 5.8 mph - N/A   Clear
3:15 PM 66.2 °F 35.6 °F 32% 30.29 in 10.0 mi East 6.9 mph - N/A   Clear
3:35 PM 66.2 °F 35.6 °F 32% 30.29 in 10.0 mi ESE 8.1 mph - N/A   Clear
3:55 PM 66.2 °F 35.6 °F 32% 30.29 in 10.0 mi East 10.4 mph - N/A   Clear
4:15 PM 64.4 °F 35.6 °F 34% 30.29 in 10.0 mi ENE 9.2 mph - N/A   Clear
4:35 PM 64.4 °F 35.6 °F 34% 30.30 in 10.0 mi ENE 8.1 mph - N/A   Clear
4:55 PM 64.4 °F 35.6 °F 34% 30.30 in 10.0 mi East 6.9 mph - N/A   Clear
5:15 PM 62.6 °F 33.8 °F 34% 30.30 in 10.0 mi East 8.1 mph - N/A   Clear
5:35 PM 59.0 °F 33.8 °F 39% 30.30 in 10.0 mi East 6.9 mph - N/A   Clear
5:55 PM 57.2 °F 33.8 °F 41% 30.31 in 10.0 mi East 5.8 mph - N/A   Clear
6:15 PM 55.4 °F 32.0 °F 41% 30.31 in 10.0 mi East 6.9 mph - N/A   Scattered Clouds
6:35 PM 53.6 °F 32.0 °F 44% 30.31 in 10.0 mi East 6.9 mph - N/A   Scattered Clouds
6:55 PM 53.6 °F 32.0 °F 44% 30.32 in 10.0 mi East 6.9 mph - N/A   Partly Cloudy
7:15 PM 53.6 °F 32.0 °F 44% 30.33 in 10.0 mi East 6.9 mph - N/A   Partly Cloudy
7:35 PM 53.6 °F 32.0 °F 44% 30.33 in 10.0 mi East 9.2 mph - N/A   Partly Cloudy
7:55 PM 53.6 °F 30.2 °F 41% 30.33 in 10.0 mi East 8.1 mph - N/A   Scattered Clouds
8:15 PM 51.8 °F 28.4 °F 41% 30.33 in 10.0 mi ESE 6.9 mph - N/A   Partly Cloudy
8:35 PM 50.0 °F 28.4 °F 43% 30.34 in 10.0 mi ESE 5.8 mph - N/A   Partly Cloudy
8:55 PM 50.0 °F 26.6 °F 40% 30.34 in 10.0 mi ESE 6.9 mph - N/A   Partly Cloudy
9:15 PM 48.2 °F 26.6 °F 43% 30.34 in 10.0 mi ESE 4.6 mph - N/A   Partly Cloudy
9:55 PM 48.2 °F 24.8 °F 40% 30.35 in 10.0 mi Calm Calm - N/A   Partly Cloudy
10:15 PM 46.4 °F 26.6 °F 46% 30.35 in 10.0 mi Calm Calm - N/A   Partly Cloudy
10:35 PM 42.8 °F 26.6 °F 53% 30.36 in 10.0 mi Calm Calm - N/A   Partly Cloudy
10:55 PM 42.8 °F 26.6 °F 53% 30.35 in 10.0 mi Calm Calm - N/A   Clear
11:15 PM 41.0 °F 26.6 °F 57% 30.36 in 10.0 mi Calm Calm - N/A   Clear
11:35 PM 41.0 °F 26.6 °F 57% 30.35 in 10.0 mi Calm Calm - N/A   Partly Cloudy
11:55 PM 37.4 °F 26.6 °F 65% 30.36 in 10.0 mi Calm Calm - N/A   Partly Cloudy